Location: Wells
(51.2093°N, 2.6446°W)
Time: 11:57:47
(UTC+00:00)

UWE-3 - Visible Passes

Search period start: 15 March 2026 00:00
Search period end: 25 March 2026 00:00
Orbit: 545 x 612 km, 97.9° (Epoch: 14 March)

Date Brightness Start Highest point End Pass type
(mag) Time Alt. Az. Time Alt. Az. Time Alt. Az.
15 Mar ? 02:25:58 10° NNE 02:27:53 22° NE 02:27:53 22° NE visible
15 Mar ? 04:01:14 10° N 04:04:12 30° NW 04:04:12 30° NW visible
16 Mar ? 02:30:22 10° NNE 02:32:32 24° NE 02:32:32 24° NE visible
16 Mar ? 04:05:45 10° N 04:08:50 29° NW 04:08:50 29° NW visible
17 Mar ? 02:34:45 10° NNE 02:37:08 27° NE 02:37:08 27° NE visible
17 Mar ? 04:10:16 10° N 04:13:27 27° NW 04:13:27 27° NW visible
18 Mar ? 02:39:09 10° NNE 02:41:45 30° NE 02:41:45 30° NE visible
18 Mar ? 04:14:46 10° N 04:18:03 26° WNW 04:18:03 26° WNW visible
19 Mar ? 02:43:32 10° NNE 02:46:20 34° NE 02:46:20 34° NE visible
19 Mar ? 04:19:16 10° N 04:22:38 24° WNW 04:22:38 24° WNW visible
20 Mar ? 02:47:54 10° NNE 02:50:55 38° NE 02:50:55 38° NE visible
20 Mar ? 04:23:45 10° N 04:27:03 22° WNW 04:27:12 22° WNW visible
21 Mar ? 02:52:16 10° NNE 02:55:28 43° NE 02:55:28 43° NE visible
21 Mar ? 04:28:15 10° NNW 04:31:23 20° WNW 04:31:46 20° WNW visible
22 Mar ? 02:56:38 10° NNE 03:00:00 49° NE 03:00:00 49° NE visible
22 Mar ? 04:32:45 10° NNW 04:35:43 19° WNW 04:36:19 18° WNW visible
23 Mar ? 03:00:59 10° NNE 03:04:32 56° NE 03:04:32 56° NE visible
23 Mar ? 04:37:13 10° NNW 04:40:02 17° WNW 04:40:50 17° WNW visible
24 Mar ? 03:05:20 10° NNE 03:09:03 64° NE 03:09:03 64° NE visible
24 Mar ? 04:41:44 10° NNW 04:44:19 16° WNW 04:45:21 15° WNW visible
